User: anonymous   Login
Location: Unspecified
(0.0000°N, 0.0000°E)
Time: 15:27:51
(UTC+00:00)
Language:

PACE - Orbit

View from above orbital plane
View from above orbital plane
View from above satellite
View from above satellite

Ground track
Ground track

The orbit data is extracted from the following two-line orbital elements,

1 40022U 14033N   18108.92674128 +.00000258 +00000-0 +33894-4 0  9992
2 40022 097.9086 024.4024 0014176 028.2000 331.9982 14.88427001207959
Epoch (UTC): 18 April 2018 22:14:30
Eccentricity: 0.0014176
inclination: 97.9086°
perigee height: 593 km
apogee height: 613 km
right ascension of ascending node: 24.4024°
argument of perigee: 28.2000°
revolutions per day: 14.88427001
mean anomaly at epoch: 331.9982°
orbit number at epoch: 20795

The dashed part of the orbit path shows where the satellite is in the earth's shadow,  

DLR